Regional Weather Roundup
Issued by NWS Cleveland, OH

Home | Current Version | Previous Version | Graphics & Text | Print | Product List | Glossary On
Versions: 1 2 3 4 5 6 7 8 9 10 11 12 13 14 15 16 17 18 19 20 21 22 23 24 25 26 27 28 29 30 31 32 33 34 35 36 37 38 39 40 41 42 43 44 45 46 47 48 49 50
000
ASUS41 KCLE 270310
RWRCLE
OHIO REGIONAL WEATHER ROUNDUP
NATIONAL WEATHER SERVICE WILMINGTON, OH
1000 PM EST MON JAN 26 2015

NOTE: "FAIR" INDICATES FEW OR NO CLOUDS BELOW 12,000 FEET WITH NO
SIGNIFICANT WEATHER AND/OR OBSTRUCTIONS TO VISIBILITY.

OHZ001>008-015>018-024>027-034-035-043-044-270400-
   NORTHWEST OHIO

CITY           SKY/WX    TMP DP  RH WIND       PRES   REMARKS
DEFIANCE       CLOUDY    14   8  77 CALM      29.98R
FINDLAY        MOCLDY     9   5  84 CALM      29.96R FOG
TOLEDO EXPRESS CLEAR     12   9  87 CALM      29.98R
TOLEDO EXEC    PTCLDY    12   7  80 CALM      29.99R
LIMA           PTCLDY     8   3  80 S3        29.95R HAZE
$$

OHZ009>014-019>023-028>033-038-089-270400-
   NORTHEAST OHIO

CITY           SKY/WX    TMP DP  RH WIND       PRES   REMARKS
CLE-HOPKINS    LGT SNOW  20  15  81 NW8       29.95S WCI  10
CLE-LAKEFRONT  CLOUDY    23  17  78 N9        29.93S WCI  13
CUY CO. ARPT   FLURRIES  23  19  86 NE12      29.92S WCI  12
LORAIN-ELYRIA  CLOUDY    17  13  84 NW3       29.94R
ASHTABULA      FLURRIES  20  15  81 NE6       29.89S WCI  12
AKRON-CANTON   LGT SNOW  20  15  81 N10       29.87S WCI   9
WOOSTER        CLOUDY    17  13  84 N7        29.90S WCI   8
MANSFIELD      CLOUDY    15  11  83 N3        29.90S
YOUNGSTOWN     LGT SNOW  20  16  84 NW7       29.85S FOG     WCI  11
$$

OHZ042-051>053-060>062-070>072-077>081-270400-
  SOUTHWEST OHIO

CITY           SKY/WX    TMP DP  RH WIND       PRES   REMARKS
CINC-COVINGTON CLOUDY    25  17  72 E7        29.93S WCI  17
CINC-LUNKEN    MOCLDY    21  15  78 NE6       29.98S WCI  13
HAMILTON       CLOUDY    21  15  78 CALM      29.97S
DAYTON         MOCLDY    14  10  84 NE5       29.94S WCI   6
WRIGHT-PAT AFB MOCLDY    11   8  88 NE3       29.95S
DAYTON GENERAL CLOUDY    16  12  84 CALM      29.93S
WILMINGTON     PTCLDY    13   9  84 NE5       29.93R WCI   5
$$

OHZ036-037-039>041-045>050-054>059-063>069-073>076-082>088-270400-
  CENTRAL AND SOUTHEAST OHIO

CITY           SKY/WX    TMP DP  RH WIND       PRES   REMARKS
COLUMBUS       PTCLDY    14   9  80 NW6       29.95R WCI   5
OSU AIRPORT    MOCLDY     8   5  87 NW6       29.95R WCI  -2
BOLTON FIELD   PTCLDY    10   8  90 NW3       29.96R
RICKENBACK AFB PTCLDY    12  10  91 W5        29.95S WCI   4
NEWARK         CLOUDY    13   9  84 W3        29.92S
MARION         MOCLDY     3  -1  83 CALM      29.95R
LANCASTER      PTCLDY     7   3  84 CALM      29.94S
ZANESVILLE     LGT SNOW  18  13  80 NW7       29.91S WCI   9
NEW PHILLY     LGT SNOW  21  16  81 NW5       29.91R WCI  15
$$


USA.gov is the U.S. government's official web portal to all federal, state and local government web resources and services.